+ View the NASA Portal
+ Center for Near-Earth Object Studies
IMPORTANT:
The SSD Announcement email list is now available. Major changes are coming in the near future, including possible hostname and/or URL changes. To be notified of such changes, subscribe to this email list.
Please visit
this page
for more details.
Don't show this message again
JPL Small-Body Database Browser
Search:
[
help
]
26001 (2001 FX98)
Classification:
Main-belt Asteroid
SPK-ID:
2026001
[
Ephemeris
|
Orbit Diagram
|
Orbital Elements
|
Mission Design
|
Physical Parameters
|
Discovery Circumstances
]
[ show orbit diagram ]
Orbital Elements at Epoch 2458600.5 (2019-Apr-27.0) TDB
Reference:
JPL 28
(heliocentric ecliptic J2000)
Element
Value
Uncertainty (1-sigma)
Units
e
.2210521280461853
5.0682e-08
a
2.628132975858431
1.8281e-08
au
q
2.047178588756571
1.4105e-07
au
i
15.82747432797112
4.9474e-06
deg
node
65.88269278124156
1.6253e-05
deg
peri
300.0004851778677
1.8915e-05
deg
M
287.8953656996183
1.2e-05
deg
t
p
2458912.195195346499
(2020-Mar-03.69519535)
5.3454e-05
TDB
period
1556.214401660805
4.26
1.6237e-05
4.445e-08
d
yr
n
.2313305927613862
2.4137e-09
deg/d
Q
3.209087362960291
2.2322e-08
au
Orbit Determination Parameters
# obs. used (total)
1302
data-arc span
21537 days (58.97 yr)
first obs. used
1960-11-12
last obs. used
2019-10-31
planetary ephem.
DE431
SB-pert. ephem.
SB431-N16
condition code
0
norm. resid. RMS
.49788
source
ORB
producer
Otto Matic
solution date
2019-Nov-07 04:51:03
Additional Information
Earth MOID
= 1.09604 au
Jupiter MOID
= 2.38364 au
T_jup
= 3.314
[ show covariance matrix ]
[
Ephemeris
|
Orbit Diagram
|
Orbital Elements
|
Mission Design
|
Physical Parameters
|
Discovery Circumstances
]
Physical Parameter Table
Parameter
Symbol
Value
Units
Sigma
Reference
Notes
absolute magnitude
H
13.7
n/a
MPO431801
diameter
diameter
8.233
km
0.116
urn:nasa:pds:neowise_diameters_albedos::2.0[mainbelt] (http://adsabs.harvard.edu/abs/2012ApJ...759L...8M)
geometric albedo
albedo
0.103
0.005
urn:nasa:pds:neowise_diameters_albedos::2.0[mainbelt] (http://adsabs.harvard.edu/abs/2011ApJ...741...68M)
26001 (2001 FX98)
Discovered 2001-Mar-16 by LINEAR at Socorro
Reference:
20010606/Numbers.arc
Last Updated:
2004-04-19
Alternate Designations
2001 FX98
= 1960 VB = 1990 XO1 = 1994 UZ2
[
Ephemeris
|
Orbit Diagram
|
Orbital Elements
|
Mission Design
|
Physical Parameters
|
Discovery Circumstances
]
2019-Dec-16 13:09 UT
(server date/time)
Site Manager:
Ryan S. Park
Webmaster
:
Alan B. Chamberlin